Overview Statistics Trail Chart Weather Telemetry Raw packets
 

This is the latest recevied weather packets stored in our database for station/object SV1JSO-13. If no packets are shown the sender has not sent any weather packets the latest 10 day(s).

<< 45 46 47 48 49 50 51 >>
Time Temp. Humidity Pressure Rain* Wind** Luminosity Snow
1788358200 35° C 24% 1007.7 hPa 0 mm - 362 W/m² -
1788357900 34.44° C 25% 1007.7 hPa 0 mm - 375 W/m² -
1788357600 35° C 24% 1007.8 hPa 0 mm - 391 W/m² -
1788357300 34.44° C 25% 1007.8 hPa 0 mm - 399 W/m² -
1788357000 34.44° C 26% 1007.9 hPa 0 mm - 411 W/m² -
1788356700 34.44° C 26% 1007.7 hPa 0 mm - 428 W/m² -
1788356400 33.89° C 26% 1007.8 hPa 0 mm - 437 W/m² -
1788356100 34.44° C 26% 1007.8 hPa 0 mm - 450 W/m² -
1788355800 34.44° C 26% 1007.8 hPa 0 mm - 461 W/m² -
1788355500 34.44° C 26% 1008 hPa 0 mm - 478 W/m² -
1788355200 34.44° C 26% 1008 hPa 0 mm - 491 W/m² -
1788354900 34.44° C 25% 1008.1 hPa 0 mm - 510 W/m² -
1788354600 34.44° C 25% 1008 hPa 0 mm - 522 W/m² -
1788354300 34.44° C 25% 1008.1 hPa 0 mm - 534 W/m² -
1788354000 34.44° C 24% 1008.1 hPa 0 mm - 549 W/m² -
1788353700 35° C 25% 1008.1 hPa 0 mm - 558 W/m² -
1788353400 34.44° C 24% 1008.2 hPa 0 mm - 571 W/m² -
1788353100 34.44° C 25% 1008.2 hPa 0 mm - 585 W/m² -
1788352800 34.44° C 25% 1008.2 hPa 0 mm - 592 W/m² -
1788352500 34.44° C 24% 1008.3 hPa 0 mm - 603 W/m² -
1788352200 34.44° C 24% 1008.3 hPa 0 mm - 620 W/m² -
1788351900 34.44° C 24% 1008.5 hPa 0 mm - 625 W/m² -
1788351600 34.44° C 24% 1008.6 hPa 0 mm - 641 W/m² -
1788351300 34.44° C 23% 1008.7 hPa 0 mm - 648 W/m² -
1788351000 34.44° C 23% 1008.7 hPa 0 mm - 657 W/m² -

* Rain latest hour (hover to see other rain measurements)
** Current wind speed in m/s (hover to see current wind gust speed)